Voltar ao catálogo

COSMOS 2499 DEB

AtivoPO
NORAD 60618·DEBRIS·🇷🇺 Russia

Lançado May 23, 2014 de Plesetsk Cosmodrome

Loading…

Próximas Passagens (próximas 24 horas)

TLE

ObsoletoSource: Space-Track

Época: Aug 25, 2026, 11:16 UTC

1 60618U 14028CE  26237.46991413 -.00015674  00000-0 -29802-1 0  9990
2 60618  82.2064 138.7122 0340897  43.2182 319.5155 13.18107536170978

Acompanhe COSMOS 2499 DEB em tempo real com AllMySat

Download on the App Store